GRBBeta
1 60237U 24128C   26246.72112507  .00001490  00000-0  11232-3 0  9996
2 60237  61.9899 300.6277 0029287 151.8919 208.3763 15.07122543118109
Curium One
1 60242U 24128H   26246.08862945  .00003432  00000-0  20158-3 0  9994
2 60242  61.9781 289.6475 0028458 146.3526 213.9385 15.13508312118249
ROBUSTA-3A
1 60243U 24128J   26246.09854805  .00003226  00000-0  19472-3 0  9990
2 60243  61.9862 292.5254 0030382 143.4742 216.8435 15.12623089118207
CatSat
1 60246U 24125J   26246.14532419  .00075992  00000-0  64121-3 0  9990
2 60246  97.1988 100.2197 0014664 243.1526 116.8238 15.69420188119572
AO-123
1 61781U 24199AY  26246.78682597  .00004912  00000-0  13885-3 0  9994
2 61781  97.2872 114.7554 0014395  33.1992 327.0153 15.36703552145992
LASARsat
1 62391U 24247Q   26246.85803100  .00029671  00000-0  49816-3 0  9991
2 62391  44.9716 178.5192 0007635 128.2008 231.9572 15.51280993 95511
CroCube
1 62394U 24247T   26246.09744806  .00034434  00000-0  52350-3 0  9997
2 62394  44.9691 178.6306 0008080 133.3796 226.7771 15.53966732 95449
JINJUSat 1B
1 63210U 25052A   26246.52035645  .00011109  00000-0  32143-3 0  9994
2 63210  97.3879 143.4632 0004260 133.7204 226.4393 15.35767004 82111
NUSHSAT 1
1 63211U 25052B   26246.68279231  .00014086  00000-0  36819-3 0  9994
2 63211  97.3854 144.4968 0003950 132.2518 227.9063 15.38868649 82205
TEVEL2-4
1 63213U 25052D   26246.68770237  .00012092  00000-0  33414-3 0  9991
2 63213  97.3776 143.3077 0003214 139.9121 220.2361 15.37186988 82166
TEVEL2-5
1 63214U 25052E   26246.65300041  .00012222  00000-0  34011-3 0  9990
2 63214  97.3774 143.1962 0003000 141.8350 218.3108 15.36967643 82155
TEVEL2-6
1 63215U 25052F   26246.14624772  .00011694  00000-0  32600-3 0  9999
2 63215  97.3778 142.6725 0002919 143.3877 216.7567 15.36922287 82077
TEVEL2-1
1 63217U 25052H   26246.53038162  .00011978  00000-0  34056-3 0  9998
2 63217  97.3750 142.5831 0002626 154.0661 206.0715 15.36302386 82115
TEVEL2-3
1 63218U 25052J   26246.19605262  .00012274  00000-0  34815-3 0  9995
2 63218  97.3755 142.2819 0002367 151.8455 208.2917 15.36369890 82067
TEVEL2-2
1 63219U 25052K   26246.66036564  .00012088  00000-0  34346-3 0  9993
2 63219  97.3751 142.7177 0002695 155.6658 204.4714 15.36320002 82130
TEVEL2-9
1 63237U 25052AD  26246.15712035  .00010817  00000-0  32976-3 0  9996
2 63237  97.3812 141.4080 0004630 204.4243 155.6781 15.34121893 81978
TEVEL2-7
1 63238U 25052AE  26246.67117507  .00010226  00000-0  31533-3 0  9999
2 63238  97.3813 141.8014 0004651 202.9397 157.1639 15.33776485 82047
TEVEL2-8
1 63239U 25052AF  26245.70148036  .00010200  00000-0  31484-3 0  9991
2 63239  97.3816 140.8072 0004593 208.3804 151.7190 15.33745411 81891
SPIRONE
1 66657U 25274H   26246.76713741  .00001167  00000-0  11519-3 0  9991
2 66657  97.7473 174.9457 0013491 109.7032 250.5645 14.93810836 41955
K-HERO
1 66660U 25274L   26246.28166046  .00001484  00000-0  14358-3 0  9998
2 66660  97.7480 174.6845 0015301 115.6395 244.6408 14.94204974 41890
SNUGLITE-III DURI
1 66661U 25274M   26246.60297743  .00000986  00000-0  97167-4 0  9990
2 66661  97.7478 175.0222 0015873 115.7805 244.5055 14.94215233 41946
SAKHACUBE-CHOLBON
1 67290U 25313AU  26246.60945708  .00005844  00000-0  22869-3 0  9998
2 67290  97.3868 320.7089 0010511  82.2339 278.0093 15.26156283 37931
RS95S (QMR-KWT-2)
1 67291U 25313AV  26246.18322759  .00008267  00000-0  30361-3 0  9995
2 67291  97.3863 320.6591 0009938  81.8454 278.3913 15.28139513 37896
Ten-Koh2
1 68261U 25241B   26246.55793044  .00003260  00000-0  14321-3 0  9999
2 68261  51.6654 306.3832 0007556  42.6075 317.5489 15.24773493 26868
JACK-002
1 68417U 26067B   26246.83887093  .00004554  00000-0  21309-3 0  9999
2 68417  97.4645 204.5366 0002916  46.0726 314.0749 15.20245705 23893
DISCO 2
1 68431U 26067R   26246.60797894  .00004631  00000-0  21741-3 0  9995
2 68431  97.4677 204.3054 0004185  85.0810 275.0903 15.20120074 23858
HADES-SA (SpinnyONE)
1 68446U 26067AG  26246.61112233  .00011215  00000-0  50083-3 0  9997
2 68446  97.4470 203.8990 0007685 143.2877 216.8887 15.21498098 23844
PARUS-6U1
1 68456U 26067AS  26246.83450497  .00003513  00000-0  17488-3 0  9993
2 68456  97.4628 204.0601 0006651 135.9524 224.2241 15.18234760 23860
SAL-E
1 68458U 26067AU  26245.62416420  .00005027  00000-0  24516-3 0  9991
2 68458  97.4554 202.7692 0006563 146.4335 213.7317 15.18741541 23681
FSI-SAT 2
1 68792U 26088A   26246.82983681  .00003484  00000-0  23401-3 0  9993
2 68792  97.5175  34.1947 0013945 193.7732 166.3117 15.07365831 20130
OrigamiSat 2
1 68795U 26088D   26245.65287358  .00007294  00000-0  44793-3 0  9994
2 68795  97.5168  33.4617 0015027 168.4482 191.7096 15.10290910 19983
ARICA 2
1 68796U 26088E   26246.22489248  .00003217  00000-0  20715-3 0  9990
2 68796  97.5172  33.9109 0015810 166.2428 193.9235 15.08962351 20068
WASEDA-SAT-ZERO-II
1 68797U 26088F   26244.94407149  .00004019  00000-0  25477-3 0  9999
2 68797  97.5170  32.6994 0015535 169.4215 190.7344 15.09392027 19879
MANGARO-II-Piscus
1 68798U 26088G   26246.72452594  .00001817  00000-0  11764-3 0  9999
2 68798  97.5178  34.4852 0019165 167.4871 192.6838 15.09261437 20141
CO-128
1 69912U 26156AV  26246.46535466  .00000994  00000-0  10633-3 0  9994
2 69912  97.7491 145.8840 0001779 348.3454  11.7723 14.90917970  8669
MARINA
1 69920U 26156BD  26246.68786536  .00001345  00000-0  13772-3 0  9991
2 69920  97.7458 146.1859 0006712 332.6521  27.4344 14.92127150  8701
IO-86
1 40931U          26199.45381863  .00000000  00000-0  77536-4 0    07
2 40931   6.0006 322.6653 0012733 338.8432 273.6875 14.79294310    03
LILIUM-4                
1 71922C 26067AC  26089.50133053 -.00014632  00000+0 -74472-3 0    04
2 71922  97.4497  49.1617 0004341   5.9603 355.7042 15.16896692    16
